Temperature
18 18 18 18 18 18 18 18 17 17 17 17 17 17 17 17 17 17 17 17 17 17 17 17 17 17 17 17 16 16 16 16 16 16 16 16 16 16 16 16 16 16 16
18 18 18 18 18 18 18 17 17 17 17 17 17 17 17 17 17 17 17 17 17 17 17 17 17 17 17 16 16 16 16 16 16 16 16 16 16 16 16 16 16 16 16
18 18 18 18 18 18 17 17 17 17 17 17 17 17 17 17 17 17 17 17 17 17 17 17 17 17 17 16 16 16 16 16 16 16 16 16 16 16 16 16 16 16 16
18 18 18 18 18 17 17 17 17 17 17 17 17 17 17 17 17 17 17 17 17 17 17 17 17 17 17 16 16 16 16 16 16 16 16 16 16 16 16 16 16 16 16
18 18 18 18 18 18 17 17 17 17 17 17 17 17 17 17 17 17 17 17 17 17 17 17 17 17 17 16 16 16 16 16 16 16 16 16 16 16 16 16 16 16 15
18 18 18 18 18 17 17 17 17 17 17 17 18 17 17 17 17 17 17 17 17 17 17 17 17 17 17 16 16 16 16 16 16 16 16 16 16 16 16 15 15 15 15
18 18 18 18 18 17 17 17 17 17 17 17 17 17 17 17 17 17 17 17 17 17 16 16 16 16 16 16 16 16 16 16 16 16 16 16 16 16 15 15 15 15 15
18 18 18 18 17 18 17 17 17 17 17 17 18 18 18 18 17 17 17 17 17 17 17 16 16 16 16 16 16 16 16 16 16 16 16 16 16 16 15 15 15 15 15
18 18 18 18 18 17 18 17 17 17 17 17 18 18 19 19 18 17 17 17 17 17 17 17 16 16 16 16 16 16 16 16 16 16 16 16 16 15 15 15 15 15 15
18 18 18 18 18 17 18 17 17 17 17 18 17 18 18 18 18 18 17 17 17 16 16 16 16 16 16 16 16 16 16 16 16 16 16 16 15 15 15 15 15 15 15
18 17 18 18 17 18 18 18 18 17 17 17 18 18 18 18 18 18 18 17 17 17 17 16 16 16 16 16 16 16 16 16 16 16 16 15 15 15 15 15 15 15 15
18 17 17 17 17 18 17 17 18 17 17 17 18 18 18 18 18 18 18 17 17 17 16 16 16 16 16 16 16 16 16 16 16 16 16 15 15 15 15 15 15 15 15
18 18 17 17 17 18 18 18 18 17 17 17 17 17 18 18 18 18 18 18 17 17 16 16 16 16 16 16 16 16 16 16 16 16 16 15 15 15 15 15 15 15 14
18 18 17 17 17 17 17 18 17 17 17 17 17 17 17 17 17 17 17 17 18 18 17 17 16 16 16 15 16 16 16 16 16 16 15 15 15 15 15 15 15 15 14
18 18 17 17 17 17 17 17 17 17 17 17 17 17 17 17 17 17 17 17 17 18 18 17 16 16 16 15 16 15 15 15 16 15 15 15 15 15 15 15 15 15 14
18 18 17 17 17 17 17 17 17 17 17 17 17 17 17 17 17 17 17 17 17 17 17 17 16 16 15 15 15 15 15 15 15 15 15 15 15 15 15 15 14 14 14
18 18 17 17 17 17 17 17 17 17 17 17 17 17 17 17 17 17 16 16 16 16 17 16 16 16 16 15 15 15 15 15 15 15 15 15 15 15 15 14 14 14 14
18 18 17 17 17 17 17 17 17 17 17 16 16 16 16 16 17 16 16 16 16 16 16 16 16 16 15 15 15 15 15 15 15 15 15 15 15 15 14 14 14 14 14
18 17 17 17 17 17 17 17 17 17 16 16 16 16 16 16 16 16 16 16 16 16 16 16 16 16 15 15 15 15 15 15 15 15 15 15 15 15 14 14 14 14 14
18 17 17 17 17 17 17 17 16 16 16 16 16 16 16 16 16 16 16 16 16 16 16 16 16 16 15 15 15 15 15 15 15 15 15 15 15 15 14 14 14 14 13
17 17 17 17 17 17 16 16 16 16 16 16 16 16 16 16 16 16 16 16 15 15 16 16 16 16 15 15 15 15 15 15 15 15 14 14 14 14 14 14 14 13 13
17 17 17 17 17 17 17 17 16 16 16 16 16 16 16 16 16 16 16 16 16 15 15 15 16 15 15 15 15 15 15 15 15 15 14 14 14 14 14 13 13 13 13
17 17 17 17 17 17 17 17 17 16 16 16 16 16 16 16 16 16 16 16 15 15 15 15 15 15 15 14 14 14 14 14 14 14 14 14 14 14 13 13 13 13 13
17 17 17 17 17 17 17 17 17 16 16 16 16 15 15 15 15 15 15 15 15 15 15 15 15 15 14 14 14 14 14 14 14 14 14 14 14 14 13 13 13 13 13
17 16 16 16 16 17 17 17 17 16 16 16 16 15 15 15 15 15 15 15 15 15 15 15 15 15 15 15 14 14 14 14 14 14 14 13 13 13 13 13 13 13 12
16 16 16 16 16 16 16 16 16 16 16 15 16 15 16 15 15 15 15 15 14 15 14 15 14 14 14 14 14 14 14 14 14 14 14 13 13 13 13 13 12 12 12
Wind_Speed
2 3 3 2 3 4 4 3 4 3 3 3 2 2 2 2 2 3 6 8 7 6 5 5 6 6 7 8 8 8 8 7 7 7 8 8 8 8 8 8 8 8 8
2 2 3 2 2 3 3 3 4 3 3 2 2 2 2 2 2 1 3 6 7 6 5 5 5 6 7 8 9 9 8 8 8 8 8 8 8 7 8 7 8 8 8
2 2 2 2 2 3 3 3 3 3 3 3 3 3 2 2 2 1 1 2 5 7 6 5 5 6 7 7 8 8 8 8 8 8 7 7 7 7 8 8 7 8 8
2 2 2 2 2 3 3 3 2 2 2 2 2 2 2 2 2 2 2 2 2 3 6 6 5 5 7 7 7 7 6 7 7 7 7 7 7 7 7 8 8 8 8
2 2 2 2 2 2 2 2 3 2 2 2 2 2 2 2 2 2 2 1 2 2 3 7 7 6 6 6 6 6 6 6 7 7 7 7 8 8 7 7 7 8 8
2 2 2 2 1 2 2 3 3 2 2 2 1 2 2 2 2 2 1 2 2 2 3 4 6 7 7 6 6 6 6 7 8 8 7 7 7 8 8 8 7 8 9
2 2 2 2 1 2 2 2 2 3 2 2 2 2 2 2 2 1 1 1 2 2 3 3 3 4 6 8 6 6 6 5 7 7 7 7 8 8 9 8 8 8 8
3 3 2 2 2 2 2 2 2 2 2 2 2 2 2 3 2 2 2 1 1 2 3 4 3 3 3 5 7 6 4 3 4 6 6 6 6 7 8 8 8 7 7
3 2 2 1 1 2 2 2 2 2 2 2 1 1 1 1 2 3 2 2 1 1 2 3 3 3 3 4 5 6 5 4 4 5 6 6 6 6 7 7 7 7 6
2 3 2 2 2 1 2 3 2 2 2 2 1 1 2 1 1 1 2 2 2 1 1 1 2 3 3 4 4 5 5 4 4 4 6 6 5 6 6 6 6 6 6
2 3 3 2 2 2 2 1 2 2 2 2 1 1 1 1 2 1 1 1 2 1 1 2 2 2 3 4 4 5 5 5 4 5 5 5 5 5 5 5 4 4 4
3 3 3 2 2 2 2 2 2 3 2 1 1 1 1 1 1 1 1 2 2 1 1 1 2 2 3 3 4 6 5 5 5 5 5 5 5 4 4 4 3 3 3
2 2 2 2 2 2 2 2 2 2 2 2 2 1 1 0 0 0 1 1 1 2 2 2 2 2 2 3 4 6 5 5 6 6 5 5 5 4 4 4 4 3 3
2 1 2 2 2 2 2 2 2 2 2 2 2 1 1 0 0 1 1 1 2 2 3 2 2 2 2 2 4 6 5 7 7 6 6 5 5 5 5 4 4 3 3
2 2 2 2 2 2 2 2 1 2 2 2 2 2 2 1 1 1 1 2 2 2 2 2 2 2 2 2 3 3 3 6 7 7 6 6 5 5 5 5 4 4 3
2 2 2 2 2 2 2 2 2 2 2 1 1 1 1 1 1 2 2 2 2 3 1 1 1 1 1 2 4 3 4 7 9 8 7 6 6 6 5 5 5 4 4
3 3 3 2 2 2 2 2 2 3 3 2 2 2 2 1 2 2 2 2 2 2 2 1 1 2 2 2 2 3 5 5 6 10 8 7 7 7 6 6 6 5 5
3 3 3 3 3 3 3 3 3 3 3 3 2 2 2 2 2 2 2 2 1 2 2 2 1 2 3 2 2 3 3 4 4 9 9 9 8 8 7 7 7 6 5
3 3 3 3 3 3 3 3 3 3 3 3 3 3 3 2 3 2 3 2 2 2 2 3 2 1 2 2 2 3 3 2 4 6 9 10 9 9 8 8 8 7 7
3 3 3 3 3 3 3 4 4 3 3 3 3 3 3 3 3 3 3 3 2 2 2 3 3 3 2 2 3 3 3 3 3 3 3 5 8 11 11 10 9 8 7
4 4 3 3 4 4 3 3 4 4 4 4 3 3 3 1 1 2 2 2 3 3 3 3 3 3 3 2 3 3 3 3 3 3 3 4 5 6 7 10 9 7 7
3 4 4 4 4 3 3 1 3 3 4 4 4 4 4 4 3 3 2 2 3 4 4 4 4 3 3 4 3 4 3 3 3 2 3 4 3 3 3 4 5 7 7
4 4 4 4 3 2 3 3 3 4 4 4 4 4 4 3 4 4 5 6 4 4 4 6 5 5 4 4 4 5 4 5 4 3 3 4 4 4 3 2 7 7 7
4 4 4 4 3 3 5 5 5 6 5 4 5 5 5 4 4 4 5 4 5 5 6 6 5 5 4 4 5 6 5 6 5 4 4 5 4 3 3 2 8 8 7
4 4 4 4 4 4 6 6 6 5 5 6 6 5 6 6 3 4 6 5 5 5 5 5 4 4 3 4 5 5 5 5 5 4 3 4 4 3 3 3 5 10 9
5 5 5 5 5 5 6 7 7 6 5 6 6 6 5 6 4 5 6 6 7 6 5 5 6 7 7 8 8 8 7 6 5 4 2 3 4 3 3 3 3 4 6
Wind_Direction
119 115 106 110 116 121 131 128 125 120 119 131 127 111 94 99 100 121 124 138 154 164 176 187 182 177 178 179 182 183 186 189 190 194 196 197 198 199 201 204 204 204 205
127 125 130 124 124 127 122 131 126 128 126 118 122 121 117 101 97 119 138 143 154 164 176 193 191 183 179 184 188 187 192 197 197 195 198 200 201 203 206 207 206 205 202
135 142 131 138 123 126 132 138 131 134 142 136 124 118 116 100 100 107 122 142 151 160 169 181 184 180 177 184 189 191 195 196 197 195 196 196 199 203 206 208 204 198 198
141 150 134 126 128 138 130 127 145 128 118 124 126 137 132 129 133 134 132 149 153 154 156 164 169 168 172 179 183 185 184 183 185 190 193 193 193 194 195 198 199 198 200
142 143 129 114 139 115 118 130 111 118 124 121 140 143 144 144 144 134 116 123 137 159 146 145 159 161 167 175 177 176 177 178 180 190 195 194 194 193 193 193 199 204 207
144 142 138 116 120 121 125 123 126 132 141 139 125 111 119 114 130 123 138 124 133 146 144 145 156 158 166 172 180 179 179 182 189 195 199 200 202 203 203 203 207 210 215
133 138 107 114 119 119 125 140 145 150 144 138 137 127 129 120 113 129 134 129 126 129 136 146 156 158 155 165 170 174 178 187 194 198 201 206 210 211 212 210 210 212 217
144 151 148 156 134 150 159 153 156 163 155 159 176 176 156 147 138 118 143 153 139 142 147 147 147 158 172 155 145 162 171 177 181 187 192 197 206 211 207 205 206 206 211
161 166 164 171 170 190 158 166 176 176 171 171 212 273 255 123 136 132 132 137 138 155 170 142 148 147 165 157 153 160 175 186 183 192 191 192 195 196 198 204 207 208 211
163 170 172 183 207 196 171 199 169 194 207 190 174 279 324 34 244 143 140 136 149 168 166 167 150 153 165 154 141 132 156 175 182 186 191 188 184 189 197 201 206 215 224
168 180 181 193 208 213 195 210 188 222 226 245 218 207 189 194 234 212 151 154 154 151 158 172 168 162 165 168 166 144 156 178 184 181 178 182 182 181 183 188 198 204 209
164 170 190 203 218 224 211 211 209 206 225 260 277 240 226 224 216 164 181 198 153 131 148 172 190 178 171 167 151 132 155 176 178 178 178 179 180 184 186 189 195 201 213
169 173 196 206 217 221 222 213 211 213 212 215 244 253 269 305 314 246 214 204 188 161 173 188 188 181 175 169 150 153 166 178 182 181 182 186 190 191 193 197 207 214 220
182 160 189 194 200 207 209 194 202 195 194 218 233 268 263 283 233 230 245 223 225 195 179 166 166 179 168 182 141 185 178 181 188 188 190 193 190 186 191 197 205 215 224
185 182 201 191 187 192 198 201 177 184 183 207 206 202 227 196 224 254 253 259 273 245 179 170 177 155 185 175 159 195 189 173 187 190 191 191 191 191 193 194 205 213 224
193 195 201 190 182 187 188 192 176 163 182 191 223 237 238 201 217 241 240 253 276 279 266 152 177 148 172 200 168 202 195 172 186 187 191 193 196 202 208 212 216 221 222
186 194 190 184 192 197 195 195 192 175 182 184 209 202 214 240 236 226 232 242 251 263 248 212 175 147 190 254 190 218 214 212 190 184 193 199 204 210 215 217 220 222 224
181 178 182 186 204 203 200 197 200 189 188 190 206 206 208 203 209 237 235 238 240 249 244 246 227 198 203 225 232 245 235 222 215 170 186 199 206 211 215 217 217 219 223
178 180 184 188 203 211 209 202 202 201 195 196 202 208 208 207 217 220 238 233 232 227 230 236 234 211 212 208 227 234 233 237 240 178 184 196 203 210 213 214 214 216 220
181 185 191 193 198 207 212 211 205 200 200 202 205 211 209 210 218 230 228 229 234 235 222 239 237 219 209 209 237 245 237 218 242 236 202 201 197 206 210 209 209 211 213
192 193 200 204 202 206 213 212 210 198 199 208 211 214 213 183 6 283 265 236 227 236 233 234 238 230 226 228 246 254 260 264 230 238 243 224 207 217 205 203 204 207 209
204 201 210 211 215 219 119 162 238 206 204 209 214 216 211 197 195 203 279 298 279 249 254 255 250 252 252 251 261 265 265 269 269 226 249 258 253 249 241 218 174 190 204
205 204 208 213 222 193 149 182 234 225 222 220 217 224 234 214 208 223 215 216 235 253 263 261 264 266 261 260 264 259 260 267 276 280 259 262 257 253 245 181 151 177 195
209 212 214 219 223 205 178 196 223 223 229 228 229 229 234 239 236 241 239 232 233 230 231 238 249 258 267 269 259 260 261 254 253 235 238 261 258 256 248 203 165 180 194
215 216 217 220 224 214 192 198 222 223 223 229 233 235 239 237 218 238 241 242 247 245 221 213 235 254 278 268 263 256 252 254 260 248 222 261 266 267 251 225 177 177 191
221 223 219 224 227 227 194 196 220 234 233 233 226 227 227 238 221 219 237 242 243 246 248 225 219 229 236 232 227 243 255 258 263 261 219 245 265 261 258 238 216 190 201
Height
1537 1538 1538 1539 1540 1540 1541 1542 1542 1543 1544 1544 1545 1546 1546 1547 1548 1548 1548 1547 1548 1548 1549 1549 1550 1551 1552 1552 1553 1555 1556 1557 1558 1559 1560 1561 1562 1563 1564 1565 1566 1566 1567
1537 1538 1538 1539 1540 1541 1541 1542 1543 1543 1544 1544 1545 1545 1546 1547 1547 1547 1548 1548 1548 1548 1548 1549 1549 1550 1551 1552 1552 1554 1555 1556 1557 1558 1559 1560 1561 1561 1562 1563 1564 1565 1566
1537 1538 1539 1539 1540 1540 1541 1542 1543 1543 1544 1545 1545 1546 1546 1547 1547 1547 1547 1548 1548 1548 1548 1548 1549 1549 1550 1550 1551 1552 1554 1555 1556 1557 1557 1558 1559 1560 1560 1561 1562 1563 1564
1537 1538 1539 1540 1540 1540 1541 1542 1543 1544 1544 1545 1545 1546 1546 1546 1546 1547 1547 1547 1548 1548 1547 1547 1547 1548 1549 1550 1551 1551 1553 1554 1555 1555 1556 1556 1557 1558 1558 1559 1560 1560 1561
1537 1538 1539 1539 1540 1541 1541 1542 1543 1543 1544 1545 1546 1546 1546 1547 1547 1547 1547 1547 1547 1547 1547 1546 1546 1547 1548 1549 1550 1550 1551 1552 1553 1554 1554 1555 1555 1556 1556 1557 1558 1558 1559
1538 1538 1539 1539 1540 1541 1541 1542 1542 1543 1544 1545 1546 1546 1547 1547 1547 1547 1547 1547 1547 1547 1547 1547 1547 1547 1547 1548 1549 1549 1550 1551 1552 1552 1553 1553 1554 1554 1555 1555 1556 1557 1558
1538 1538 1539 1539 1540 1541 1541 1542 1543 1543 1544 1545 1546 1546 1546 1546 1546 1546 1546 1547 1547 1547 1546 1546 1547 1547 1547 1547 1548 1549 1549 1550 1550 1551 1551 1552 1552 1552 1553 1553 1554 1555 1555
1538 1539 1539 1540 1540 1541 1541 1542 1542 1543 1544 1545 1546 1546 1546 1547 1546 1546 1546 1546 1546 1547 1546 1546 1546 1546 1547 1547 1547 1547 1548 1549 1549 1549 1549 1550 1550 1550 1551 1551 1552 1552 1553
1538 1539 1539 1540 1540 1541 1541 1542 1542 1543 1544 1545 1545 1546 1546 1545 1546 1546 1545 1546 1545 1546 1546 1546 1546 1545 1546 1546 1546 1546 1547 1547 1548 1548 1548 1548 1549 1549 1549 1550 1550 1550 1551
1538 1539 1539 1539 1540 1541 1541 1542 1542 1543 1543 1544 1544 1544 1545 1545 1545 1546 1546 1545 1545 1545 1545 1546 1545 1545 1545 1545 1545 1545 1545 1546 1546 1546 1546 1547 1547 1547 1548 1548 1548 1548 1549
1538 1539 1539 1539 1539 1540 1540 1541 1541 1542 1543 1544 1544 1544 1544 1544 1544 1545 1545 1545 1545 1545 1544 1544 1545 1545 1544 1544 1544 1544 1544 1544 1545 1545 1545 1545 1545 1546 1546 1546 1546 1546 1546
1538 1539 1539 1539 1539 1540 1540 1540 1541 1541 1542 1542 1543 1543 1544 1544 1544 1544 1544 1544 1544 1544 1544 1544 1544 1544 1543 1543 1543 1543 1543 1543 1543 1543 1544 1544 1544 1544 1544 1544 1544 1544 1544
1538 1538 1538 1538 1538 1539 1539 1539 1539 1540 1541 1541 1541 1542 1543 1543 1543 1543 1543 1543 1543 1543 1543 1543 1543 1543 1543 1542 1542 1541 1541 1541 1541 1542 1542 1542 1542 1542 1543 1543 1542 1542 1542
1537 1537 1537 1537 1538 1538 1538 1538 1539 1539 1539 1540 1541 1541 1541 1542 1541 1542 1542 1542 1542 1543 1542 1542 1542 1542 1541 1541 1540 1540 1540 1540 1540 1540 1540 1541 1541 1541 1541 1541 1541 1540 1540
1536 1536 1536 1536 1537 1537 1537 1537 1538 1538 1538 1539 1540 1539 1540 1540 1540 1540 1540 1541 1542 1541 1541 1541 1541 1540 1540 1539 1539 1539 1539 1538 1538 1538 1538 1538 1539 1539 1539 1539 1539 1538 1538
1534 1534 1535 1535 1536 1536 1536 1536 1537 1537 1537 1537 1538 1538 1538 1539 1539 1539 1539 1539 1540 1540 1540 1540 1540 1539 1538 1539 1537 1537 1537 1536 1536 1536 1536 1536 1536 1537 1537 1537 1536 1536 1535
1533 1533 1533 1534 1534 1535 1535 1535 1536 1536 1536 1536 1536 1537 1536 1536 1537 1538 1538 1538 1538 1539 1539 1539 1538 1537 1536 1536 1536 1536 1536 1535 1535 1535 1534 1534 1534 1535 1534 1534 1534 1534 1533
1531 1531 1532 1533 1533 1534 1534 1534 1534 1535 1535 1535 1535 1535 1535 1535 1535 1536 1536 1536 1536 1536 1537 1537 1536 1536 1535 1534 1534 1534 1534 1534 1534 1533 1532 1532 1532 1532 1532 1532 1531 1531 1530
1530 1530 1531 1531 1532 1532 1532 1533 1533 1533 1533 1533 1533 1533 1534 1534 1534 1534 1534 1535 1535 1535 1535 1535 1535 1534 1534 1533 1532 1532 1532 1531 1531 1531 1530 1529 1529 1529 1529 1529 1528 1528 1527
1528 1529 1529 1530 1530 1530 1531 1531 1532 1532 1532 1532 1532 1532 1532 1532 1532 1532 1532 1532 1533 1533 1533 1533 1533 1533 1532 1531 1530 1530 1530 1529 1529 1529 1528 1527 1527 1526 1526 1525 1524 1524 1523
1527 1527 1528 1528 1529 1529 1530 1530 1530 1530 1530 1530 1530 1530 1530 1530 1530 1530 1531 1531 1531 1531 1531 1531 1531 1531 1530 1530 1529 1528 1528 1527 1526 1526 1526 1525 1525 1524 1523 1522 1521 1520 1520
1525 1526 1526 1527 1528 1528 1528 1528 1528 1529 1528 1528 1528 1528 1529 1528 1528 1528 1528 1528 1528 1528 1529 1529 1529 1529 1528 1528 1527 1526 1526 1525 1525 1524 1523 1523 1523 1522 1521 1520 1518 1517 1516
1523 1523 1524 1525 1525 1526 1526 1526 1526 1526 1527 1526 1526 1526 1528 1527 1526 1526 1525 1525 1525 1525 1525 1526 1526 1526 1526 1525 1525 1524 1523 1522 1521 1521 1520 1520 1519 1518 1518 1516 1515 1514 1513
1520 1521 1522 1522 1523 1523 1523 1524 1524 1524 1524 1524 1524 1524 1524 1524 1524 1523 1523 1523 1523 1523 1523 1523 1523 1523 1523 1522 1522 1521 1520 1519 1518 1517 1517 1517 1516 1515 1514 1513 1511 1510 1509
1518 1518 1519 1519 1520 1520 1521 1521 1521 1522 1522 1521 1521 1521 1521 1521 1521 1521 1521 1520 1520 1520 1520 1520 1520 1519 1519 1519 1519 1518 1518 1517 1516 1516 1514 1514 1513 1512 1511 1510 1508 1506 1506
1515 1516 1516 1516 1517 1517 1517 1517 1518 1519 1519 1519 1518 1518 1517 1517 1517 1517 1518 1518 1517 1517 1518 1517 1517 1516 1516 1515 1515 1515 1514 1514 1514 1513 1511 1510 1510 1509 1508 1507 1505 1504 1503